www.pogodaiklimat.ru

Погода и климат >> Архив погоды >> Мексика >> Парраль


ПОГОДА в Паррале

  • Прогноз погоды в Паррале
  • Монитор погоды в Паррале

АРХИВ ПОГОДЫ в Паррале

Время (UTC), дата Ветер
(напр.,м/с)
 
Видим.   Явления Облачность Т
(С)
Тd
(С)
f
(%)
Тe
(С)
Тes
(С)
Комфортность P
(гПа)
Po
(гПа)
Тmin
(С)
Tmax
(С)
R
(мм)
R24
(мм)
S
(см)
12 14.04 С 1 1000 м ясно +5.2 -3.5 53 +5 +5 1019.7 827.4 +4.5 +25.4
15 14.04 С 1 10 км ясно +9.8 -1.0 47 +10 +17 1024.0 829.0
21 14.04 СВ 2 10 км 5/0
[Ci fib]
+26.6 +1.3 19 +25 +39 комфорт 1016.0 825.4
00 15.04 СВ 2 10 км 8/0
[Cs]
+27.1 +0.5 18 +25 +27 комфорт 1010.4 823.8 +3.7 +27.9
12 15.04 СЗ 1 1000 м 1/0
[Ci fib]
+8.2 -2.2 48 +8 +8 1013.1 824.7 +7.0 +27.9
15 15.04 С 1 10 км 5/0
[Cs]
+12.8 -2.2 35 +13 +20 1017.0 825.8
18 15.04 С 3 10 км 8/0
[Cs]
+26.2 -7.4 10 +23 +37 комфорт 1015.9 825.6 +6.0 +26.6
21 15.04 СЗ 3 10 км 9/0
[Cs]
+31.8 -10.6 6 +27 +38 жарко 1010.5 823.5
00 16.04 З 2 10 км 10/4 2000 м
[Sc diur, vesp Ac trans]
+30.8 -3.6 11 +27 +28 жарко 1005.2 822.2 +6.0 +32.8
03 16.04 ЮЗ 2 1000 м 10/9 1260 м
[Sc diur, vesp As trans]
+24.8 -0.4 19 +23 +23 комфорт 1004.2 823.6
12 16.04 С 1 1000 м 5/0 2000 м
[Ac trans]
+14.8 -3.8 27 +16 +16 1009.4 823.9 +14.0 +32.8
15 16.04 С 2 10 км 9/0 2000 м
[Ac trans Cs]
+15.0 -3.5 28 +15 +19 1014.0 825.9
18 16.04 З 3 10 км 8/0
[Cs]
+25.4 -10.0 9 +22 +36 комфорт 1013.8 825.8 +12.5 +25.6
21 16.04 З 3 10 км 8/0 2000 м
[As trans Cs]
+30.4 -8.6 7 +26 +36 жарко 1009.7 823.9
00 17.04 ЮЗ 6 10 км 9/1 2000 м
[Sc diur, vesp Ac trans Cs]
+28.8 -3.5 12 +26 +26 жарко 1006.4 823.2 +12.5 +31.1
03 17.04 Ю 3 1000 м 8/0 2000 м
[Ac trans Cs]
+22.6 -1.7 20 +21 +21 комфорт 1006.7 824.7
12 17.04 СЗ 5 1000 м ясно +17.8 -6.7 18 +17 +17 1008.6 823.1 +17.0 +31.1
15 17.04 СЗ 4 10 км ясно +22.0 -8.7 12 +20 +24 1008.8 822.7
18 17.04 СЗ 5 10 км ясно +28.4 -15.7 5 +24 +34 комфорт 1008.5 823.3 +17.0 +28.8
21 17.04 СЗ 7 10 км ясно +30.2 -11.8 6 +26 +30 жарко 1004.8 821.7
00 18.04 ЮЗ 6 10 км ясно +28.4 -5.8 10 +25 +26 комфорт 1000.7 819.9 +17.0 +31.2
03 18.04 З 5 1000 м ясно +20.4 -0.2 25 +20 +20 1003.9 823.0
12 18.04 С 1 1000 м ясно +11.8 -0.8 42 +12 +12 1015.9 826.9 +11.0 +31.2
15 18.04 СЗ 2 10 км ясно +14.6 -0.5 35 +15 +21 1019.5 828.3
18 18.04 С 3 10 км ясно +21.8 -1.2 21 +21 +37 комфорт 1020.0 829.1 +10.8 +22.2
21 18.04 СВ 3 10 км 1/0
[Ci fib]
+25.0 +0.5 20 +24 +37 комфорт 1017.6 828.6
00 19.04 С 3 10 км 3/0
[Ci fib]
+25.8 +1.4 20 +24 +26 комфорт 1014.4 827.9 +10.8 +26.2
03 19.04 СВ 1 1000 м 3/0
[Ci fib]
+19.4 +1.3 30 +21 +21 комфорт 1014.6 829.2
12 19.04 СЗ 1 1000 м 3/0
[Cs]
+8.2 -1.7 50 +8 +8 1021.4 830.3 +7.4 +26.2
15 19.04 СЗ 2 10 км 6/0
[Cs]
+15.4 -3.5 27 +16 +21 1024.2 831.1
21 19.04 ЮЗ 2 10 км 8/0
[Cs]
+28.0 -14.8 5 +24 +38 комфорт 1018.5 829.5
00 20.04 СЗ 2 10 км 5/0
[Cs]
+28.2 -9.7 8 +25 +27 комфорт 1012.4 827.2 +7.0 +29.0
12 20.04 СЗ 1 1000 м 5/0
[Cs]
+11.2 -3.6 35 +12 +12 1015.7 827.2 +11.0 +29.0
15 20.04 С 1 10 км 6/0
[Cs]
+15.8 -1.5 31 +17 +23 1019.4 828.3
21 20.04 С 4 10 км 5/0 2000 м
[Ac trans]
+34.5 +4.2 15 +32 +40 жарко 1011.0 824.9
00 21.04 ЮЗ 2 10 км 9/9 1500 м
[Sc diur, vesp]
+29.6 +0.2 15 +27 +27 жарко 1006.4 823.7 +9.5 +34.8

 

Местоположение метеостанции Парраль (Мексика): широта 26.93 долгота -105.60 высота над уровнем моря 1661 м.

В архиве по умолчанию представлена погода в Паррале за последнюю неделю. Архивные данные за месяц целиком и за предыдущие месяцы, начиная с января 2011 года, Вы можете получить, выбрав интересующий диапазон дат из раскрывающегося списка и нажав кнопку "Ввод!".


*Определитесь, кто Вы:
робот инопланетянин человек

Внимание! Время в таблицах - всемирное. Для получения местного времени необходимо прибавить поправку, которая равна -6 ч.

Смотрите также архив погоды в соседних городах и на ближайших метеорологических станциях:

Погода в Тепеуанесе (Мексика) (177 км)
Погода в Чихуахуа университете (Мексика) (193 км)
Погода в Чихуахуа (Мексика) (202 км)
Погода в Чойсе (Мексика) (259 км)
Погода в Торреоне (Мексика) (269 км)
Погода в Кульякане (Мексика) (298 км)
Погода в Темосачи (Мексика) (312 км)
Погода в Дуранго (Мексика) (336 км)
Погода в Монклове (Мексика) (417 км)
Погода в Сомбререте (Мексика) (419 км)

Пояснения к столбцам:

Ветер - указаны скорость ветра в м/с - средняя за 10 мин, порывы в срок и между сроками (в фигурных скобках) и направление, откуда дует ветер: С - северный, СВ - северо-восточный, В - восточный, ЮВ - юго-восточный, Ю - южный, ЮЗ - юго-западный, З - западный, СЗ - северо-западный.
Видимость - горизонтальная дальность видимости в метрах или километрах. При видимости от 1 до 10 км при отсутствии осадков обычно наблюдается дымка, при ухудшении видимости до 1 км и менее - туман. В сухую погоду видимость может ухудшаться дымом, пылью или мглою.
Явления - указаны атмосферные явления, наблюдавшиеся в срок или в последний час перед сроком; фигурными скобками обозначены явления, наблюдавшиеся между сроками (за 1-3 часа до срока); квадратными скобками обозначены град или гололедные отложения с указанием их диаметра в мм.
Облачность - указаны через наклонную черту общая и нижняя облачность в баллах и высота нижней границы облаков в метрах; квадратными скобками обозначены формы облаков: Ci - перистые, Cs - перисто-слоистые, Cc - перисто-кучевые, Ac - высококучевые, As - высокослоистые, Sc - слоисто-кучевые, Ns - слоисто-дождевые, Cu - кучевые, Cb - кучево-дождевые. Подробнее классификацию облаков см. в Атласе облаков (PDF).
T - Температура воздуха - температура, измеренная на высоте 2 м над землей.
Td - Температура точки росы - температура, при понижении до которой содержащийся в воздухе водяной пар достигнет насыщения.
f - Относительная влажность воздуха - влажноcть воздуха, измеренная на высоте 2 м над землей.
Te - Эффективная температура - температура, которую ощущает одетый по сезону человек в тени. Характеристика душности погоды. При расчете учитывается влияние влажности воздуха и скорости ветра на теплоощущения человека.
Tes - Эффективная температура на солнце - температура, которую ощущает человек, с поправкой на солнечный нагрев. Характеристика знойности погоды. Зависит от высоты солнца над горизонтом, облачности и скорости ветра. Ночью, в пасмурную погоду, а также при ветре 12 м/с и более поправка равна нулю.
P - Атмосферное давление - приведенное к уровню моря атмосферное давление.
Po - Атмосферное давление - измеренное на уровне метеостанции атмосферное давление.
Tmin - Минимальная температура - минимум температуры воздуха на высоте 2 м над землей.
Tmax - Максимальная температура - максимум температуры воздуха на высоте 2 м над землей.
R - Количество осадков - Количество выпавших осадков за период времени, мм. При наведении курсора мыши на число - период времени, за который выпало указанное количество осадков.
R24 - Количество осадков - Количество выпавших осадков за 24 часа, мм.
S - Снежный покров - Высота снежного покрова, см. При наведении курсора мыши на число - состояние снежного покрова и степень покрытия местности в баллах.